Weather Roundup
Issued by NWS

Home | Current Version | Previous Version | Text Only | Print | Product List | Glossary On
Versions: 1 2 3 4 5 6 7 8 9 10 11 12 13 14 15 16 17 18 19 20 21 22 23 24 25 26 27 28 29 30 31 32 33 34 35 36 37 38 39 40 41 42 43 44 45 46 47 48 49 50
000
NZUS93 KARX 072210
HRRWXR

CURRENT HOURLY OBSERVATIONS ACROSS
MUCH OF THE UPPER MISSISSIPPI VALLEY
NATIONAL WEATHER SERVICE LA CROSSE WI
400 PM CST WED DEC 07 2016


...SOUTHEAST MINNESOTA...


CITY           SKY/WX    TMP DP  RH WIND       PRES   REMARKS
ROCHESTER      FLURRIES  19  12  74 W20       30.06R WCI   3
ROCHESTER/MAYO CLOUDY    19  13  76 W18G28    30.07R WCI   4
WINONA         CLOUDY    21  12  68 W14       30.10R WCI   8
AUSTIN         CLOUDY    19  12  73 W20G26    30.10R WCI   4
ALBERT LEA     CLOUDY    25  14  63 NW12G28   30.11R WCI  14
DODGE CENTER   FLURRIES  18  12  79 W15G23    30.07R WCI   3
PRESTON        CLOUDY    18  11  75 W15       30.09R WCI   3
OWATONNA       FLURRIES  19  10  68 W21G30    30.10R WCI   3
FARIBAULT      FLURRIES  19  10  68 W18G28    30.10R WCI   4
$$

...ELSEWHERE IN MINNESOTA...


CITY           SKY/WX    TMP DP  RH WIND       PRES   REMARKS
MINNEAPOLIS    FLURRIES  20   9  62 W18       30.07R WCI   5
INTNL FALLS    LGT SNOW  23  19  85 N12G24    29.80R VSB 3/4 WCI  12
DULUTH         LGT SNOW  18  13  80 W20G26    29.83R BLWGSNOWWCI   2
RED WING       CLOUDY    21   9  58 W13       30.07R WCI   9
REDWOOD FALLS  CLOUDY    18   7  62 NW21G35   30.16R WCI   1
MANKATO        FLURRIES  19  10  68 W22G30    30.12R WCI   2
WORTHINGTON    PTCLDY    17   8  67 W28G36    30.18R WCI  -2
FAIRMONT       CLEAR     21  10  62 W23G32    30.16R WCI   5
$$

...SOUTHWEST WISCONSIN...


CITY           SKY/WX    TMP DP  RH WIND       PRES   REMARKS
LA CROSSE      CLOUDY    22  12  65 W16       30.10R WCI   8
PRAIRIE DU CHI FLURRIES  21  12  68 W9G18     30.15R WCI  11
BOSCOBEL       CLOUDY    22  12  65 SW9       30.13R WCI  12
LONE ROCK      CLOUDY    21  12  68 W14G20    30.10R WCI   8
PLATTEVILLE    CLOUDY    20  15  80 W13G25    30.12R WCI   8
FORT MC COY    FLURRIES  21  13  72 W10G20    30.06R WCI  10
CAMP DOUGLAS   CLOUDY    21  12  68 W13       30.03R WCI   9
MAUSTON-NEW LI CLOUDY    21  13  72 W12       30.03R WCI   9
VIROQUA        CLOUDY    18  13  80 W14G23    30.05R WCI   4
WIS DELLS      MOCLDY    20  12  69 W12G18    30.04R WCI   8
$$

...ELSEWHERE IN WISCONSIN...


CITY           SKY/WX    TMP DP  RH WIND       PRES   REMARKS
MILWAUKEE      MOCLDY    26  15  63 W14G24    30.03R WCI  14
MADISON        MOCLDY    21  14  74 W9        30.06R WCI  11
GREEN BAY      MOCLDY    27  16  63 W16G24    29.93R WCI  15
EAU CLAIRE     CLOUDY    20  12  71 W17G23    30.01R WCI   5
BLACK RVR FLS  CLOUDY    22  12  65 W13       30.03R WCI  10
MEDFORD        FLURRIES  18  11  75 W14G22    29.91R WCI   4
WAUSAU         FLURRIES  19  12  74 W22G30    29.92R WCI   2
WIS RAPIDS     CLOUDY    21  13  71 W14G25    29.99R WCI   8
MARSHFIELD     CLOUDY    20  11  68 W16G28    29.95R WCI   6
RICE LAKE      CLOUDY    20  11  67 W14G24    29.98R WCI   7
$$

...NORTHEAST IOWA...


CITY           SKY/WX    TMP DP  RH WIND       PRES   REMARKS
WATERLOO       CLOUDY    23  13  65 W21G29    30.18R WCI   8
DUBUQUE        CLOUDY    19  13  77 W16       30.14R WCI   4
DECORAH        FLURRIES  19  14  79 W8G20     30.10R WCI   9
MASON CITY     CLOUDY    22  11  62 W25       30.16R WCI   5
CHARLES CITY   CLOUDY    23  14  68 W20G25    30.14R WCI   8
OELWEIN        CLOUDY    23  16  74 W17       30.15R WCI   9
$$

...ELSEWHERE IN IOWA...


CITY           SKY/WX    TMP DP  RH WIND       PRES   REMARKS
DES MOINES     CLOUDY    25   9  50 W16       30.26R WCI  12
IOWA CITY      PTCLDY    25  14  63 W17G26    30.23R WCI  12
FORT DODGE     CLEAR     23   9  54 W16G26    30.22R WCI  10
MARSHALLTOWN   PTCLDY    23  13  65 W21G28    30.20R WCI   8
CEDAR RAPIDS   CLOUDY    22  16  78 W16       30.18R WCI   8
$$

...NORTHERN ILLINOIS...


CITY           SKY/WX    TMP DP  RH WIND       PRES   REMARKS
CHICAGO-OHARE  MOCLDY    24  17  74 W17G26    30.10R WCI  11
CHICAGO-MIDWAY MOCLDY    27  17  66 W16       30.12R WCI  15
MOLINE         MOCLDY    27  15  61 W15G24    30.19R WCI  15
ROCKFORD       CLOUDY    24  16  71 W15       30.13R WCI  11
PEORIA         MOCLDY    30  17  58 W12       30.20R WCI  20
$$

NOTE: "FAIR" INDICATES FEW OR NO CLOUDS BELOW 12,000 FEET WITH NO
SIGNIFICANT WEATHER AND/OR OBSTRUCTIONS TO VISIBILITY. WIND
SPEEDS ARE IN MILES-PER-HOUR.




USA.gov is the U.S. government's official web portal to all federal, state and local government web resources and services.